Location: Newark
(49.8969°N, 3.3422°E)
Time: 10:54:44
(UTC+00:00)

Explorer 7 - Pass Details

Date: 29 January 2020
Orbit: 485 x 679 km, 50.3° (Epoch: 23 February)

Event Time Altitude Azimuth Distance (km) Brightness Sun altitude
Rises 22:54:40 0° 262° (W) 2,570 - -55.4°
Reaches altitude 10° 22:56:52 10° 262° (W) 1,677 - -55.6°
Maximum altitude 23:00:38 88° 349° (N) 491 - -55.8°
Drops below altitude 10° 23:04:24 10° 83° (E) 1,675 - -56.1°
Sets 23:06:35 0° 83° (E) 2,567 - -56.2°
